Location: Unspecified
(17.6330°N, 0.0000°E)
Time: 10:18:48
(UTC+00:00)

S-56A Canister/Altair - Pass Details

Date: 04 July 2019
Orbit: 632 x 2500 km, 38.9° (Epoch: 16 July)

Event Time Altitude Azimuth Distance (km) Brightness Sun altitude
Rises 19:26:58 0° 300° (WNW) 4,177 13.6 -11.1°
Reaches altitude 10° 19:30:22 10° 295° (WNW) 2,917 12.1 -11.8°
Maximum altitude 19:36:42 46° 224° (SW) 1,091 8.4 -13.1°
Enters shadow 19:40:35 15° 154° (SSE) 1,873 9.0 -13.9°
Drops below altitude 10° 19:41:22 10° 150° (SSE) 2,147 - -14.0°
Sets 19:43:32 0° 144° (SE) 2,974 - -14.5°
